AirNav  
 
 1264 users online  

34OR Providence Portland Medical Center Heliport
Portland, Oregon, USA

GOING TO PORTLAND?


FAA INFORMATION EFFECTIVE 25 MARCH 2021

Location

FAA Identifier: 34OR
Lat/Long: 45-31-40.8500N 122-36-43.5300W
45-31.680833N 122-36.725500W
45.5280139,-122.6120917
(estimated)
Elevation: 234 ft. / 71 m (estimated)
Variation: 19E (1985)
From city: 4 miles E of PORTLAND, OR
Time zone: UTC -7 (UTC -8 during Standard Time)
Zip code: 97213

Heliport Operations

Heliport use: Private use, MEDICAL USE.
Activation date: 10/1982
Control tower: no
ARTCC: SEATTLE CENTER
FSS: MC MINNVILLE FLIGHT SERVICE STATION
Attendance: CONTINUOUS
Wind indicator: yes
Segmented circle: yes
Lights: FOR PERIMETER LGTS PHONE 503-230-6548

Heliport Communications

WX ASOS at PDX (4 nm N): PHONE (503) 493-7687
WX ASOS at VUO (6 nm N): 135.125 (360-696-1280)
WX ASOS at TTD (9 nm E): 135.625 (503-492-2887)
WX ASOS at HIO (14 nm W): PHONE 503-615-4314
WX ASOS at SPB (18 nm NW): 135.875 (503-543-6401)
WX ASOS at UAO (18 nm S): PHONE 503-678-3011

Nearby radio navigation aids

VOR radial/distance  VOR name  Freq  Var
BTGr163/13.2BATTLE GROUND VORTAC116.6021E
UBGr035/18.6NEWBERG VOR/DME117.4021E

 
NDB name  Hdg/Dist  Freq  Var  ID
BANKS093/19.235616EPND .--. -. -..

Heliport Services

Runway Information

Helipad H1

Dimensions: 106 x 106 ft. / 32 x 32 m
Surface: concrete, in fair condition
Runway edge lights: PERI
Operational restrictions: ROOFTOP HELIPAD.
Latitude: 45-31.680833N
Longitude: 122-36.725500W
Elevation: 234.0 ft.
Traffic pattern: leftleft
Markings: none, in fair condition

Heliport Ownership and Management from official FAA records

Ownership: Privately-owned
Owner: PROVIDENCE PORTLAND MEDICAL CENTER
4805 N E GLISAN
PORTLAND, OR 97213
Phone 503-230-6548
Manager: RICH HILDRETH
4400 NE HALSEY STREET, BUILDING 1, SUITE 160
PORTLAND, OR 97213
Phone 503-215-6205

Additional Remarks

FOR CD CTC PORTLAND APCH AT 503-493-7545.

Instrument Procedures

There are no published instrument procedures at 34OR.

Some nearby airports with instrument procedures:

KPDX - Portland International Airport (4 nm N)
KVUO - Pearson Field Airport (6 nm N)
KTTD - Portland-Troutdale Airport (9 nm E)
KHIO - Portland-Hillsboro Airport (14 nm W)
KSPB - Scappoose Industrial Airpark (18 nm NW)
KUAO - Aurora State Airport (18 nm S)
 
Loc | Ops | Rwys | IFR | FBO | Links
Com | Nav | Svcs | Stats | Notes
Area around 34OR (Providence Portland Medical Center Heliport)
 
Road maps at: MapQuest Bing Google
 
Aerial photo
WARNING: Photo may not be current or correct
Aerial photo of 34OR (Providence Portland Medical Center Heliport)
Do you have a better or more recent aerial photo of Providence Portland Medical Center Heliport that you would like to share? If so, please send us your photo.

 
Sectional chart

 
Airport distance calculator
Flying to Providence Portland Medical Center Heliport? Find the distance to fly.

From to 34OR

Sunrise and sunset
Times for 17-Apr-2021
 Local
(UTC-7)
 Zulu
(UTC)
Morning civil twilight05:5112:51
Sunrise06:2213:22
Sunset19:5802:58
Evening civil twilight20:2903:29

Current date and time
Zulu (UTC)  17-Apr-2021 15:16:40
Local (UTC-7)  17-Apr-2021 08:16:40
 
METAR
KPDX 
3nm N 
171453Z 29004KT 10SM CLR 11/04 A3020 RMK AO2 SLP225 T01110044 51015
KVUO 
6nm N 
171453Z AUTO 00000KT 10SM CLR 11/04 A3020 RMK AO2 SLP225 T01060044 51016
KTTD 
8nm E 
171453Z 00000KT 10SM CLR 12/03 A3019 RMK AO2 SLP224 T01170028 53011
KHIO 
14nm W 
171453Z 24003KT 10SM CLR 08/03 A3018 RMK AO2 SLP219 T00780033 51010
KSPB 
18nm NW 
171453Z AUTO 00000KT 10SM CLR 10/03 A3019 RMK AO2 SLP223 T01000033 53011
KUAO 
18nm S 
171453Z 03003KT 10SM CLR 13/01 A3019 RMK AO2 SLP222 T01330011 53014
TAF
KPDX 
3nm N 
171132Z 1712/1812 06006KT P6SM SKC FM171800 09007KT P6SM SKC FM180000 05006KT P6SM SKC FM180300 VRB04KT P6SM SKC
KTTD 
8nm E 
171132Z 1712/1812 10004KT P6SM SKC FM171500 08010KT P6SM SKC FM172100 06008KT P6SM SKC FM180600 08005KT P6SM SKC FM180900 00000KT P6SM SKC
KHIO 
14nm W 
171132Z 1712/1812 06005KT P6SM SKC FM171800 09005KT P6SM SKC FM172100 VRB03KT P6SM SKC FM180000 01006KT P6SM SKC FM180600 VRB04KT P6SM SKC
KUAO 
18nm S 
171132Z 1712/1812 02007KT P6SM SKC FM171500 04005KT P6SM SKC FM171800 VRB03KT P6SM SKC FM180000 36005KT P6SM SKC
NOTAMs
Click for the latest NOTAMs
NOTAMs are issued by the DoD/FAA and will open in a separate window not controlled by AirNav.

 

 
 

Would you like to see your business listed on this page?

 If your business provides an interesting product or service to pilots, flight crews, aircraft, or users of the Providence Portland Medical Center Heliport, you should consider listing it here.  To start the listing process, click on the button below
 
Add a business
 

Other Pages about Providence Portland Medical Center Heliport

Update a link
 
Copyright © AirNav, LLC. All rights reserved. Privacy Policy  Contact